カタログに戻る

FLOCK 4G 30

運用中科学SSO
NORAD 62679·PAYLOAD·🇺🇸 United States

打ち上げ Jan 14, 2025 から Vandenberg Space Force Base

Loading…

次のパス (今後24時間)

TLE

最新Source: Space-Track

元期: Sep 13, 2026, 16:36 UTC

1 62679U 25009BY  26256.69203538  .00039495  00000-0  10413-2 0  9994
2 62679  97.3864 338.1933 0002099  23.9620 336.1723 15.38391401150120

AllMySatでFLOCK 4G 30をリアルタイム追跡

Download on the App Store